Weather History for Jacksonville Craig, FL

Change the Weather History Date:

Saturday, July 13, 2013

  Actual Average Record
Temperature  
Mean Temperature 81 °F -  
Max Temperature 89 °F 88 °F 98 °F (2010)
Min Temperature 73 °F 71 °F 68 °F (1997)
Cooling Degree Days 16    
Growing Degree Days 31 (Base 50)    
Moisture  
Dew Point 72 °F    
Average Humidity 77    
Maximum Humidity 91    
Minimum Humidity 58    
Precipitation  
Precipitation 0.25 in - - ()
Sea Level Pressure  
Sea Level Pressure 29.97 in    
Wind  
Wind Speed 5 mph (SSE)    
Max Wind Speed 13 mph    
Max Gust Speed 20 mph    
Visibility 9 miles    
Events Rain , Thunderstorm    
Averages and records for this station are not official NWS values.
T = Trace of Precipitation, MM = Missing Value Source: NWS Daily Summary

Daily Weather History Graph

Daily Weather History Graph

Search for Another Location

Airport:

Trip Planner

Search our weather history database for the weather conditions in past years. The results will help you decide how hot, cold, wet, or windy it might be!

Date:

Astronomy

Jul. 13, 2013 Rise Set
Actual Time 6:33 AM EDT 8:29 PM EDT
Civil Twilight 6:06 AM EDT 8:57 PM EDT
Nautical Twilight 5:33 AM EDT 9:29 PM EDT
Astronomical Twilight 4:58 AM EDT 10:04 PM EDT
Moon 11:22 AM EDT (7/13) 11:37 PM EDT (7/13)
Length of Visible Light 14h 50m
Length of Day
13h 56m
Waxing Crescent, 25% of the Moon is Illuminated
Jul 13
Waxing Crescent
Jul 15
First Quarter
Jul 22
Full
Jul 29
Last Quarter
Aug 6
New

Hourly Weather History & Observations

Time (EDT) Temp. Heat Index Dew Point Humidity Pressure Visibility Wind Dir Wind Speed Gust Speed Precip Events Conditions
12:53 AM 78.1 °F - 73.0 °F 84% 29.93 in 10.0 mi SSE 5.8 mph - N/A   Partly Cloudy
1:53 AM 75.9 °F - 72.0 °F 87% 29.92 in 10.0 mi SSE 4.6 mph - N/A   Mostly Cloudy
2:05 AM 75.2 °F - 71.6 °F 89% 29.92 in 10.0 mi SSE 5.8 mph - N/A   Overcast
2:53 AM 75.9 °F - 72.0 °F 87% 29.92 in 10.0 mi South 3.5 mph - N/A   Partly Cloudy
3:53 AM 75.9 °F - 71.1 °F 85% 29.93 in 10.0 mi Calm Calm - N/A   Clear
4:53 AM 73.9 °F - 71.1 °F 91% 29.94 in 10.0 mi Calm Calm - N/A   Clear
5:53 AM 75.0 °F - 71.1 °F 87% 29.94 in 10.0 mi Calm Calm - N/A   Partly Cloudy
6:53 AM 75.0 °F - 72.0 °F 90% 29.94 in 10.0 mi South 3.5 mph - N/A   Clear
7:53 AM 77.0 °F - 73.0 °F 88% 29.95 in 10.0 mi SSE 3.5 mph - N/A   Clear
8:01 AM 77.0 °F - 73.4 °F 89% 29.95 in 10.0 mi SSE 3.5 mph - N/A   Partly Cloudy
8:53 AM 81.0 °F 85.8 °F 73.0 °F 77% 29.97 in 10.0 mi Calm Calm - N/A   Clear
9:53 AM 82.9 °F 88.8 °F 73.0 °F 72% 29.98 in 10.0 mi South 4.6 mph - N/A   Clear
10:53 AM 84.0 °F 89.6 °F 72.0 °F 67% 29.99 in 10.0 mi SE 5.8 mph - N/A   Scattered Clouds
11:53 AM 86.0 °F 93.0 °F 73.0 °F 65% 29.98 in 10.0 mi SE 4.6 mph - N/A   Partly Cloudy
12:16 PM 87.8 °F 93.8 °F 71.6 °F 58% 29.97 in 10.0 mi SSW 4.6 mph - N/A   Mostly Cloudy
12:24 PM 87.8 °F 93.8 °F 71.6 °F 58% 29.97 in 10.0 mi ESE 6.9 mph - N/A   Scattered Clouds
12:53 PM 89.1 °F 97.0 °F 73.0 °F 59% 29.97 in 10.0 mi ESE 8.1 mph - N/A   Scattered Clouds
1:53 PM 84.9 °F 89.4 °F 70.0 °F 61% 29.96 in 10.0 mi ESE 10.4 mph 19.6 mph N/A   Clear
2:00 PM 84.2 °F 89.6 °F 71.6 °F 66% 29.96 in 10.0 mi SE 11.5 mph 19.6 mph N/A Thunderstorm Thunderstorm
2:53 PM 87.1 °F 92.8 °F 71.1 °F 59% 29.96 in 10.0 mi SE 9.2 mph - N/A   Partly Cloudy
3:42 PM 86.0 °F 91.8 °F 71.6 °F 62% 29.97 in 10.0 mi East 11.5 mph - N/A   Mostly Cloudy
3:50 PM 86.0 °F 91.8 °F 71.6 °F 62% 29.96 in 10.0 mi ESE 11.5 mph 18.4 mph N/A   Mostly Cloudy
3:53 PM 86.0 °F 92.2 °F 72.0 °F 63% 29.96 in 10.0 mi ESE 12.7 mph 18.4 mph N/A   Mostly Cloudy
4:35 PM 86.0 °F 93.4 °F 73.4 °F 66% 29.97 in 10.0 mi ESE 11.5 mph - N/A   Mostly Cloudy
4:53 PM 84.9 °F 90.7 °F 72.0 °F 65% 29.97 in 10.0 mi ESE 10.4 mph - N/A   Mostly Cloudy
5:04 PM 84.2 °F 89.6 °F 71.6 °F 66% 29.98 in 10.0 mi SE 10.4 mph - N/A   Scattered Clouds
5:24 PM 80.6 °F 84.6 °F 71.6 °F 74% 29.99 in 10.0 mi WNW 3.5 mph - N/A   Mostly Cloudy
5:53 PM 80.1 °F 83.6 °F 71.1 °F 74% 30.00 in 10.0 mi West 4.6 mph - N/A   Mostly Cloudy
6:15 PM 78.8 °F - 71.6 °F 78% 29.99 in 10.0 mi WSW 6.9 mph - N/A   Overcast
6:23 PM 78.8 °F - 71.6 °F 78% 29.99 in 10.0 mi WSW 3.5 mph - N/A   Overcast
6:34 PM 78.8 °F - 71.6 °F 78% 29.98 in 10.0 mi Calm Calm - N/A Thunderstorm Thunderstorm
6:53 PM 79.0 °F - 72.0 °F 79% 29.99 in 3.0 mi Calm Calm - 0.05 in Rain , Thunderstorm Light Thunderstorms and Rain
6:55 PM 78.8 °F - 71.6 °F 78% 29.98 in 1.5 mi NW 5.8 mph - 0.06 in Rain , Thunderstorm Heavy Thunderstorms and Rain
7:07 PM 75.2 °F - 71.6 °F 89% 29.98 in 3.0 mi NNW 5.8 mph - 0.13 in Rain , Thunderstorm Thunderstorms and Rain
7:29 PM 77.0 °F - 73.4 °F 89% 29.97 in 6.0 mi West 4.6 mph - 0.20 in Rain , Thunderstorm Light Thunderstorms and Rain
7:40 PM 75.2 °F - 71.6 °F 89% 29.97 in 10.0 mi South 10.4 mph - 0.20 in   Overcast
7:53 PM 75.0 °F - 72.0 °F 90% 29.96 in 10.0 mi SSW 6.9 mph - 0.20 in   Overcast
8:07 PM 75.2 °F - 69.8 °F 83% 29.96 in 10.0 mi SSW 4.6 mph - N/A   Mostly Cloudy
8:16 PM 75.2 °F - 69.8 °F 83% 29.96 in 10.0 mi SSE 4.6 mph - N/A   Partly Cloudy
8:53 PM 73.9 °F - 70.0 °F 87% 29.95 in 10.0 mi SSE 4.6 mph - N/A   Clear
9:53 PM 73.9 °F - 70.0 °F 87% 29.98 in 10.0 mi South 3.5 mph - N/A   Clear
10:53 PM 73.9 °F - 69.1 °F 85% 30.01 in 10.0 mi Calm Calm - N/A   Clear
11:53 PM 73.0 °F - 69.1 °F 87% 30.03 in 10.0 mi Calm Calm - N/A   Clear